Dewpoint
27 21 20 20 18 17 16 14 13 13 12 10 12 11 10 16 18 20 19 19 18 21 23 28 34 36 35 33 33 34 35 36 34 31 30 30 29 30 29 28 29 29 28 30
23 22 21 20 19 19 19 18 18 16 12 11 10 10 10 13 16 18 18 18 19 20 23 30 34 34 34 33 34 34 34 33 31 30 31 31 30 30 29 29 29 30 29 29
21 20 25 23 22 22 22 21 20 19 10 10 12 12 12 10 15 17 19 19 18 20 23 30 33 34 32 32 33 33 33 32 32 31 30 31 31 30 28 28 28 29 30 28
23 25 22 23 23 24 23 25 22 18 15 16 12 15 15 16 12 13 16 18 18 19 24 29 33 32 31 32 34 33 32 31 31 32 30 30 27 26 28 29 29 29 30 29
23 23 25 25 24 25 23 28 24 19 20 21 16 17 18 14 14 15 15 17 18 20 23 29 32 31 30 32 33 33 32 31 31 32 31 29 29 28 28 28 29 30 29 29
28 27 28 25 26 28 27 25 27 27 23 25 20 20 24 16 17 15 15 16 18 19 25 31 32 31 31 32 33 32 31 30 31 31 31 31 30 28 27 27 26 26 26 26
24 27 30 28 27 30 30 30 30 28 29 27 22 17 24 25 24 23 20 16 18 22 29 31 30 30 31 32 32 32 30 29 29 30 31 31 30 29 28 26 24 24 23 21
25 21 29 32 27 27 31 31 31 25 21 25 25 24 29 24 23 23 23 18 20 26 31 31 31 31 31 32 32 32 30 28 28 30 30 31 31 27 27 26 25 24 21 23
34 26 32 34 32 31 30 31 33 30 27 28 28 27 29 32 27 23 22 21 25 29 31 31 31 32 32 32 33 33 31 28 29 29 30 30 30 29 27 27 27 24 22 24
37 31 29 32 35 36 33 35 33 34 27 23 22 23 30 33 36 24 25 26 30 31 30 31 30 32 32 34 34 34 31 29 29 29 29 28 29 29 29 28 27 24 23 25
39 32 29 31 31 35 36 34 34 34 32 27 24 30 36 36 39 29 29 30 31 31 31 30 30 31 32 33 33 33 31 29 29 29 29 29 29 29 29 27 27 23 24 25
39 37 32 29 36 37 34 34 36 33 29 30 30 33 36 36 36 30 28 31 32 31 31 30 31 32 32 32 31 31 31 29 29 29 29 29 29 29 28 27 25 23 23 25
36 35 31 29 33 35 33 34 33 34 34 32 31 35 30 32 31 29 30 32 32 32 31 31 31 31 31 32 31 30 29 29 29 28 28 28 28 28 27 27 23 21 23 23
39 37 33 31 31 34 33 34 32 35 32 33 34 36 38 35 31 30 31 33 32 32 31 31 31 32 31 31 31 29 29 29 27 27 27 28 28 28 27 26 21 22 23 22
36 33 37 36 36 36 36 34 35 33 35 33 36 35 36 34 34 30 32 32 32 31 30 31 31 31 31 31 30 28 27 28 27 26 26 28 28 28 27 24 21 22 22 21
31 31 31 33 35 35 34 34 35 36 37 36 35 34 37 33 31 31 31 31 31 31 30 30 30 30 30 30 29 27 27 27 27 26 27 27 27 26 26 21 21 20 20 20
27 29 34 30 33 30 31 34 33 34 35 34 33 35 31 31 30 30 31 30 30 31 31 31 30 30 30 30 29 27 27 27 26 26 26 27 27 25 24 18 18 19 19 19
27 29 33 32 31 25 30 30 31 32 32 33 32 31 31 29 32 30 32 31 31 31 31 32 31 31 30 30 28 28 26 26 26 25 26 26 26 24 19 15 17 19 18 18
31 30 30 31 29 28 21 21 26 27 23 27 32 32 32 32 31 30 32 32 32 33 33 32 32 32 30 28 27 25 25 25 25 25 26 26 25 22 16 14 16 17 16 16
33 32 32 34 27 23 28 27 27 29 22 24 32 32 32 32 27 30 32 33 34 34 32 31 31 30 28 28 27 25 25 25 24 26 27 26 25 20 15 16 16 17 16 15
31 30 28 30 31 30 31 29 28 19 24 29 29 33 32 29 29 34 33 34 34 33 31 31 30 28 27 26 25 25 25 24 27 27 25 24 23 18 15 16 17 17 17 17
31 32 30 33 30 28 31 28 24 31 32 31 34 34 32 33 34 34 33 34 32 30 30 29 29 27 26 25 24 23 23 27 27 25 23 21 20 13 11 15 17 17 18 18
30 33 31 34 35 37 36 35 36 33 33 30 32 34 34 35 34 34 34 33 31 30 29 28 27 26 25 24 23 23 26 27 25 22 19 16 15 13 12 13 16 20 19 19
27 31 35 32 32 33 36 36 35 29 28 31 31 33 34 35 34 34 33 32 31 29 28 27 27 25 25 25 23 24 26 26 23 17 14 11 10 10 12 16 17 20 22 21
28 30 33 35 35 37 34 35 37 29 32 31 31 33 33 35 34 33 32 32 30 29 28 27 26 25 24 24 24 25 26 25 20 12 9 9 10 12 15 18 20 21 23 25
35 34 34 34 37 38 37 38 39 31 31 32 33 33 33 34 32 32 32 31 30 29 29 27 27 26 24 23 24 25 26 24 20 11 9 10 11 15 16 18 22 25 25 26
Lifted_Index
7 6 5 6 7 7 7 6 6 6 6 5 5 4 4 5 5 5 6 7 8 10 11 11 11 11 11 11 11 10 11 12 14 15 17 18 18 19 20 21 21 21 21 21
6 5 6 7 7 7 7 6 6 6 5 5 4 4 4 4 4 4 6 7 8 9 10 11 11 11 11 11 10 10 11 12 14 16 17 18 18 19 20 20 21 21 21 21
5 6 7 7 7 7 6 6 5 5 4 4 4 3 3 2 3 4 5 7 8 9 10 10 10 10 10 10 10 10 11 12 14 16 17 18 18 19 19 20 20 20 21 21
6 7 7 7 6 6 5 5 5 4 3 2 2 2 2 2 2 3 5 7 8 9 9 10 10 10 10 10 10 10 11 12 14 16 17 18 18 18 19 19 19 20 20 21
6 7 6 6 5 5 4 4 3 2 1 1 1 1 1 1 2 3 5 6 7 8 9 9 9 9 10 10 10 10 11 13 15 17 17 18 18 18 19 19 19 19 20 20
6 6 5 5 4 4 3 3 2 1 0 -0 -0 0 0 1 2 3 4 5 6 7 8 9 9 9 10 10 10 10 11 13 15 17 17 18 18 18 18 19 19 19 19 19
6 5 5 4 3 3 2 1 0 0 -0 -0 -0 0 1 1 2 3 4 5 6 7 8 8 9 9 9 9 9 10 12 14 16 17 17 18 18 18 18 19 19 19 19 19
4 4 4 3 2 1 0 -0 -0 -0 -0 -0 0 0 1 1 2 3 3 4 5 6 7 8 9 9 9 9 9 10 12 14 16 17 17 18 18 18 19 19 19 19 19 19
3 3 3 2 1 0 -0 -0 0 0 0 0 0 0 1 1 2 2 3 4 5 6 7 8 8 9 9 9 9 11 13 15 16 17 17 18 18 18 18 19 19 19 19 19
3 3 2 1 0 -0 -0 0 0 0 0 0 0 1 1 2 2 2 3 4 5 6 7 8 8 8 8 9 9 11 14 15 16 17 17 17 18 18 18 18 19 19 18 18
3 2 1 1 0 -0 -0 0 1 1 0 0 1 1 1 2 2 2 3 4 5 6 7 8 8 8 8 8 10 12 14 15 16 17 17 17 18 18 18 18 18 18 18 18
3 2 1 1 0 0 0 0 1 1 1 1 1 1 1 1 1 2 3 5 6 7 7 8 8 8 8 8 10 12 14 16 16 17 17 17 17 18 18 18 18 18 18 17
3 2 1 1 0 0 0 0 1 1 1 1 1 1 1 1 1 2 4 5 6 7 7 8 8 7 8 8 10 13 15 16 16 17 17 17 17 17 17 17 18 18 17 17
3 2 1 1 0 0 0 1 1 1 1 1 1 1 1 1 2 3 4 5 6 7 7 7 7 7 8 9 11 13 15 16 17 17 17 17 17 17 17 17 17 17 17 16
3 2 1 1 1 0 1 1 1 1 1 1 1 1 1 2 2 3 5 6 6 6 7 7 7 7 8 9 11 14 15 16 17 17 17 17 17 17 17 17 17 17 16 16
4 3 2 1 1 1 1 1 1 1 1 1 1 2 2 3 3 4 5 6 6 6 7 7 7 7 8 10 12 14 16 16 17 17 16 16 17 17 17 17 17 16 16 16
4 3 2 1 1 0 1 1 1 1 1 2 2 2 3 3 3 4 5 6 6 6 6 7 7 8 9 10 12 15 16 16 16 16 16 16 17 17 17 17 16 16 16 16
4 3 2 1 1 0 1 1 2 2 2 3 3 3 3 4 4 5 5 6 6 6 7 7 7 8 9 11 13 15 16 16 16 16 16 16 16 16 16 16 16 16 16 16
3 3 2 1 1 0 1 2 2 2 3 4 4 4 4 4 5 5 6 6 6 7 7 7 7 8 10 11 14 15 16 16 16 16 16 16 16 16 16 16 16 16 16 16
2 2 2 1 1 0 1 2 3 3 3 4 4 4 4 4 5 6 6 6 7 7 7 7 8 9 10 12 14 16 16 16 16 16 16 16 16 16 16 16 16 16 16 16
2 2 1 1 0 1 1 2 3 3 3 4 4 4 4 4 5 6 6 7 7 7 7 7 8 9 10 12 15 16 16 16 16 17 16 16 16 16 16 16 16 16 16 16
2 1 1 1 1 1 2 2 2 3 4 5 5 5 5 5 5 6 6 7 7 7 7 8 8 9 11 13 15 16 16 16 17 17 16 16 16 16 16 16 16 16 16 16
3 2 2 1 1 1 2 2 3 4 5 6 5 5 5 5 6 6 6 7 7 7 7 8 8 9 11 13 15 16 16 17 17 16 16 16 16 16 16 16 16 16 15 15
4 3 2 1 1 2 2 2 3 4 6 6 5 5 5 6 6 6 6 6 6 7 7 8 8 10 12 14 16 16 17 17 16 16 16 16 16 16 16 16 16 16 16 16
4 3 2 2 2 2 2 3 3 5 6 6 5 5 5 6 6 7 7 7 7 7 7 8 9 10 12 14 16 16 17 17 16 16 16 16 16 16 16 16 16 16 17 17
3 3 2 2 2 2 2 3 4 5 5 5 5 5 5 6 6 7 7 7 7 7 7 8 9 10 12 14 16 16 17 17 16 16 16 16 16 16 16 16 16 17 17 17